Regional Weather Roundup
Issued by NWS

Home | Current Version | Previous Version | Text Only | Print | Product List | Glossary Off
Versions: 1 2 3 4 5 6 7 8 9 10 11 12 13 14 15 16 17 18 19 20 21 22 23 24 25 26 27 28 29 30 31 32 33 34 35 36 37 38 39 40 41 42 43 44 45 46 47 48 49 50

000
ASUS45 KSLC 271510
RWRUT

UTAH REGIONAL WEATHER ROUNDUP
NATIONAL WEATHER SERVICE SALT LAKE CITY UT
800 AM MST SAT DEC 27 2014

UTZ001>011-023>025-271600-

NORTHERN UTAH

CITY           SKY/WX    TMP DP  RH WIND       PRES   REMARKS
BRIGHAM CITY   CLEAR      9   4  83 CALM      30.35S
HILL AFB       PTCLDY    15   7  71 SE13      30.32R WCI   0
LOGAN          MOCLDY    -1  -6  79 E3        30.35R HAZE
OGDEN          PTCLDY    13   7  77 S9        30.32R WCI   1
PROVO AIRPORT  PTCLDY    10   3  72 SE5       30.35R WCI   2
SALT LAKE CITY PTCLDY    17   9  70 SE8       30.35R WCI   7
VERNAL         CLOUDY    11   5  77 W3        30.29R
WENDOVER       PTCLDY    16   7  67 CALM      30.34R
HEBER CITY     FOG        5   3  92 CALM      30.30R VSB 1
WEST JORDAN    CLEAR     16  12  86 S8        30.34R WCI   5

$$

UTZ012>022-026-027-271600-

SOUTHERN/CENTRAL UTAH

CITY           SKY/WX    TMP DP  RH WIND       PRES   REMARKS
BLANDING       CLEAR     12   8  84 NW3       30.29R
BRYCE CANYON   PTCLDY    -9 -13  83 W7        30.21R WCI -24
CEDAR CITY     PTCLDY    -1  -5  82 SE3       30.28R
DELTA          PTCLDY     5   3  89 SE3       30.34R
MILFORD        PTCLDY     1  -4  79 W6        30.32R WCI -10
MOAB/CYNLANDS  MOCLDY    11   8  88 W3        30.30R
PRICE          PTCLDY     9   0  67 N6        30.23R WCI  -1
ST GEORGE      MOSUNNY   25   9  50 CALM      30.37S
KANAB          CLEAR     16   9  73 NE5       30.34R WCI   9

$$

REGIONAL REPORTS     COLORADO/ARIZONA

CITY           SKY/WX    TMP DP  RH WIND       PRES   REMARKS
CRAIG, CO      LGT SNOW   5   1  83 CALM      30.24R FOG
GRAND JUNCTION PTCLDY     3   0  87 E5        30.31R WCI  -6
RIFLE          CLOUDY     9   3  77 E6        30.29R WCI  -1
MONTROSE       CLOUDY    16  12  84 W3        30.29R
CORTEZ         CLEAR      4  -1  80 NE7       30.22R WCI  -8
PAGE, AZ       CLEAR     24   6  46 W3        30.31R
GRAND CANYON   CLEAR     17  10  74 NE7       30.21R WCI   8
KINGMAN        CLEAR     22  13  68 E9        30.30R WCI  12
FLAGSTAFF      CLEAR     17  11  77 NE9       30.17R WCI   6

$$

REGIONAL REPORTS    NEVADA/IDAHO/WYOMING

CITY           SKY/WX    TMP DP  RH WIND       PRES   REMARKS
LAS VEGAS, NV  CLEAR     38  10  31 NE7       30.34R WCI  33
ELY            PTCLDY     0  -3  87 S8        30.30R WCI -14
ELKO           PTCLDY    10   6  84 CALM      30.33R
POCATELLO, ID  CLOUDY    20  16  84 S6        30.29S WCI  12
BURLEY         CLOUDY    24  14  65 SW12      30.28S WCI  13
EVANSTON, WY   PTCLDY     4   0  83 S8        30.18R WCI  -9
ROCK SPRINGS   MOCLDY     5   1  83 W17       30.14S WCI -14
KEMMERER       FLURRIES   3   1  92 W9        30.15S WCI -11

$$


USA.gov is the U.S. government's official web portal to all federal, state and local government web resources and services.